Regional Weather Roundup
Issued by NWS

Home | Current Version | Previous Version | Text Only | Print | Product List | Glossary On
Versions: 1 2 3 4 5 6 7 8 9 10 11 12 13 14 15 16 17 18 19 20 21 22 23 24 25 26 27 28 29 30 31 32 33 34 35 36 37 38 39 40 41 42 43 44 45 46 47 48 49 50
000
ASUS43 KLMK 230102
RWRKY
KENTUCKY REGIONAL WEATHER ROUNDUP
NATIONAL WEATHER SERVICE LOUISVILLE KY
900 PM EDT WED MAR 22 2017

NOTE "FAIR" INDICATES FEW OR NO CLOUDS BELOW 12,000 FEET
WITH NO SIGNIFICANT WEATHER AND/OR OBSTRUCTIONS TO VISIBILITY.

KYZ001>023-026-027-061>063-070>075-230200-
WESTERN AND SOUTH CENTRAL KENTUCKY

CITY           SKY/WX    TMP DP  RH WIND       PRES   REMARKS
PADUCAH        CLOUDY    49  20  31 NE9       30.35S
HENDERSON      PTCLDY    43  18  36 NE10      30.37S
OWENSBORO      CLEAR     47  15  27 E7        30.40R
HOPKINSVILLE   CLEAR     47  21  35 NE8       30.34R
BOWLING GREEN  PTCLDY    45  19  35 E7        30.38R
GLASGOW        NOT AVBL
$$

KYZ024-025-028>034-038-045-046-053-230200-
NORTH CENTRAL KENTUCKY

CITY           SKY/WX    TMP DP  RH WIND       PRES   REMARKS
LOUISVILLE/SDF PTCLDY    43  13  29 E10       30.42S
LOUISVILLE/LOU CLEAR     43  15  32 NE7       30.43R
FORT KNOX      CLEAR     42  15  34 VRB7      30.39R
$$

KYZ035>037-039>044-047>052-055>060-089>105-230200-
NORTHEAST KENTUCKY

CITY           SKY/WX    TMP DP  RH WIND       PRES   REMARKS
LEXINGTON      CLEAR     36  18  48 NE9       30.42R WCI  29
COVINGTON      PTCLDY    36  20  52 E14       30.45R WCI  27
FRANKFORT      CLEAR     40  18  41 NE8       30.41S WCI  34
$$

KYZ054-064>069-076>088-106>120-230200-
SOUTHEAST KENTUCKY

CITY           SKY/WX    TMP DP  RH WIND       PRES   REMARKS
JACKSON        CLEAR     39  15  37 VRB5      30.39R
LONDON         CLEAR     42  14  32 N8        30.36R
SOMERSET       CLEAR     41  19  42 N13       30.38R
MIDDLESBORO    CLEAR     46  22  38 CALM      30.34R
MONTICELLO     CLEAR     42  21  43 N17       30.38R
$$





USA.gov is the U.S. government's official web portal to all federal, state and local government web resources and services.